This is the latest recevied weather packets stored in our database for station/object HA9OZD-17. If no packets are shown the sender has not sent any weather packets the latest 10 day(s).
| Time | Temp. | Humidity | Pressure | Rain* | Wind** | Luminosity | Snow |
|---|---|---|---|---|---|---|---|
| 1778168722 | 17.22° C | 48% | 892 hPa | - | - | - | - |
| 1778165121 | 19.44° C | 42% | 892 hPa | - | - | - | - |
| 1778161519 | 20.56° C | 39% | 892 hPa | - | - | - | - |
| 1778157918 | 21.11° C | 38% | 892 hPa | - | - | - | - |
| 1778154317 | 21.67° C | 37% | 892 hPa | - | - | - | - |
| 1778150716 | 18.33° C | 45% | 892 hPa | - | - | - | - |
| 1778147115 | 17.22° C | 48% | 892 hPa | - | - | - | - |
| 1778143513 | 17.78° C | 46% | 891 hPa | - | - | - | - |
| 1778139912 | 17.22° C | 48% | 891 hPa | - | - | - | - |
| 1778136311 | 16.11° C | 49% | 891 hPa | - | - | - | - |
| 1778132710 | 15.56° C | 52% | 890 hPa | - | - | - | - |
| 1778129109 | 15° C | 54% | 890 hPa | - | - | - | - |
| 1778125507 | 14.44° C | 55% | 889 hPa | - | - | - | - |
| 1778121906 | 13.89° C | 56% | 889 hPa | - | - | - | - |
| 1778118391 | 14.44° C | 55% | 889 hPa | - | - | - | - |
| 1778114790 | 15° C | 52% | 889 hPa | - | - | - | - |
| 1778111189 | 15.56° C | 49% | 889 hPa | - | - | - | - |
| 1778107588 | 16.11° C | 46% | 890 hPa | - | - | - | - |
| 1778103986 | 17.22° C | 43% | 890 hPa | - | - | - | - |
| 1778100385 | 17.22° C | 42% | 890 hPa | - | - | - | - |
| 1778096784 | 17.78° C | 40% | 890 hPa | - | - | - | - |
| 1778093183 | 18.33° C | 38% | 889 hPa | - | - | - | - |
| 1778089581 | 20.56° C | 32% | 889 hPa | - | - | - | - |
| 1778085980 | 23.33° C | 28% | 889 hPa | - | - | - | - |
| 1778082378 | 22.78° C | 28% | 890 hPa | - | - | - | - |
* Rain since midnight (hover to see other rain measurements)
** Current wind speed in m/s (hover to see current wind gust speed)